Weather History for KBAC - July, 2013

Change the Weather History Date:

Tuesday, July 9, 2013

  Actual Average (KJMS) Record (KJMS)
Temperature  
Mean Temperature 66 °F 69 °F  
Max Temperature 75 °F 82 °F 109 °F (1936)
Min Temperature 57 °F 57 °F 40 °F (1910)
Degree Days  
Heating Degree Days 0 1  
Month to date heating degree days 9  
Since 1 June heating degree days 106  
Since 1 July heating degree days 9  
Cooling Degree Days 1 5  
Month to date cooling degree days 45  
Year to date cooling degree days 145  
Since 1 June cooling degree days 125  
Growing Degree Days 16 (Base 50)    
Moisture  
Dew Point 64 °F    
Average Humidity 89    
Maximum Humidity 100    
Minimum Humidity 68    
Precipitation  
Precipitation 0.21 in 0.12 in 0.69 in (2003)
Month to date precipitation 1.10  
Year to date precipitation 9.84  
Sea Level Pressure  
Sea Level Pressure 29.94 in    
Wind  
Wind Speed 8 mph (NNW)    
Max Wind Speed 18 mph    
Max Gust Speed 28 mph    
Visibility 10 miles    
Events Rain , Thunderstorm    
T = Trace of Precipitation, MM = Missing Value Source: NWS Daily Summary

Daily Weather History Graph

Daily Weather History Graph

Search for Another Location

Airport or City:

Trip Planner

Search our weather history database for the weather conditions in past years. The results will help you decide how hot, cold, wet, or windy it might be!

Date:

Astronomy

Jul. 09, 2013 Rise Set
Actual Time 5:47 AM CDT 9:27 PM CDT
Civil Twilight 5:08 AM CDT 10:05 PM CDT
Nautical Twilight 4:16 AM CDT 10:57 PM CDT
Astronomical Twilight 3:04 AM CDT 12:08 AM CDT
Moon 7:21 AM CDT (7/9) 9:54 PM CDT (7/9)
Length of Visible Light 16h 57m
Length of Day
15h 39m
New Moon, 2% of the Moon is Illuminated
Jul 9
New Moon
Jul 15
First Quarter
Jul 22
Full
Jul 29
Last Quarter
Aug 6
New

Hourly Weather History & Observations

Time (CDT) Temp. Dew Point Humidity Pressure Visibility Wind Dir Wind Speed Gust Speed Precip Events Conditions
12:15 AM 69.8 °F 68.0 °F 94% 29.90 in 10.0 mi South 5.8 mph - N/A   Overcast
12:35 AM 68.0 °F 68.0 °F 100% 29.89 in 10.0 mi South 5.8 mph - N/A   Mostly Cloudy
12:55 AM 69.8 °F 68.0 °F 94% 29.88 in 10.0 mi South 4.6 mph - N/A   Overcast
1:15 AM 68.0 °F 68.0 °F 100% 29.87 in 10.0 mi South 4.6 mph - N/A   Mostly Cloudy
1:35 AM 68.0 °F 68.0 °F 100% 29.88 in 10.0 mi SSW 5.8 mph - N/A   Mostly Cloudy
1:55 AM 69.8 °F 69.8 °F 100% 29.89 in 10.0 mi SSW 4.6 mph - N/A   Mostly Cloudy
2:15 AM 69.8 °F 69.8 °F 100% 29.88 in 10.0 mi SSW 3.5 mph - N/A   Overcast
2:35 AM 69.8 °F 69.8 °F 100% 29.90 in 10.0 mi NW 8.1 mph 21.9 mph N/A Thunderstorm Overcast
2:55 AM 69.8 °F 68.0 °F 94% 29.90 in 6.0 mi NW 12.7 mph - 0.04 in Rain , Thunderstorm Light Rain
3:15 AM 66.2 °F 66.2 °F 100% 29.88 in 3.0 mi ENE 5.8 mph - 0.12 in Rain , Thunderstorm Thunderstorms and Rain
3:35 AM 66.2 °F 66.2 °F 100% 29.87 in 7.0 mi East 11.5 mph - 0.16 in Rain , Thunderstorm Light Rain
3:55 AM 66.2 °F 66.2 °F 100% 29.85 in 10.0 mi SW 5.8 mph - 0.16 in Rain Light Rain
4:15 AM 66.2 °F 66.2 °F 100% 29.81 in 6.0 mi SSE 3.5 mph - N/A Rain Light Rain
4:35 AM 66.2 °F 66.2 °F 100% 29.83 in 10.0 mi SSW 3.5 mph - N/A   Mostly Cloudy
4:55 AM 66.2 °F 66.2 °F 100% 29.80 in 8.0 mi NE 4.6 mph - 0.01 in Rain Light Rain
5:15 AM 66.2 °F 66.2 °F 100% 29.81 in 10.0 mi NNE 6.9 mph - N/A   Partly Cloudy
5:35 AM 66.2 °F 66.2 °F 100% 29.82 in 10.0 mi North 10.4 mph - N/A   Clear
5:55 AM 66.2 °F 66.2 °F 100% 29.83 in 10.0 mi North 8.1 mph - N/A   Clear
6:15 AM 64.4 °F 64.4 °F 100% 29.84 in 10.0 mi NNW 6.9 mph - N/A   Clear
6:35 AM 64.4 °F 64.4 °F 100% 29.85 in 10.0 mi NNW 4.6 mph - N/A   Partly Cloudy
6:55 AM 64.4 °F 64.4 °F 100% 29.86 in 10.0 mi NNW 3.5 mph - N/A   Scattered Clouds
7:15 AM 64.4 °F 64.4 °F 100% 29.86 in 10.0 mi Calm Calm - N/A   Partly Cloudy
7:35 AM 66.2 °F 66.2 °F 100% 29.87 in 10.0 mi WNW 3.5 mph - N/A   Clear
7:55 AM 66.2 °F 66.2 °F 100% 29.88 in 10.0 mi NW 5.8 mph - N/A   Scattered Clouds
8:15 AM 66.2 °F 66.2 °F 100% 29.89 in 10.0 mi WNW 3.5 mph - N/A   Overcast
8:35 AM 66.2 °F 66.2 °F 100% 29.88 in 10.0 mi NW 5.8 mph - N/A   Overcast
8:55 AM 68.0 °F 68.0 °F 100% 29.88 in 10.0 mi NNW 4.6 mph - N/A   Overcast
9:15 AM 68.0 °F 68.0 °F 100% 29.88 in 10.0 mi NW 8.1 mph - N/A   Overcast
9:35 AM 68.0 °F 68.0 °F 100% 29.88 in 10.0 mi NNW 8.1 mph - N/A   Mostly Cloudy
9:55 AM 69.8 °F 69.8 °F 100% 29.88 in 10.0 mi NW 11.5 mph - N/A   Mostly Cloudy
10:15 AM 71.6 °F 71.6 °F 100% 29.89 in 10.0 mi NNW 8.1 mph - N/A   Mostly Cloudy
10:35 AM 69.8 °F 69.8 °F 100% 29.90 in 10.0 mi NW 9.2 mph - N/A   Mostly Cloudy
10:55 AM 73.4 °F 68.0 °F 83% 29.90 in 10.0 mi NW 15.0 mph - N/A   Mostly Cloudy
11:15 AM 73.4 °F 68.0 °F 83% 29.90 in 10.0 mi NW 13.8 mph 20.7 mph N/A   Mostly Cloudy
11:35 AM 73.4 °F 66.2 °F 78% 29.90 in 10.0 mi WNW 15.0 mph - N/A   Scattered Clouds
11:55 AM 73.4 °F 66.2 °F 78% 29.90 in 10.0 mi NW 13.8 mph - N/A   Partly Cloudy
12:15 PM 73.4 °F 66.2 °F 78% 29.92 in 10.0 mi NW 17.3 mph 25.3 mph N/A   Mostly Cloudy
12:35 PM 75.2 °F 66.2 °F 73% 29.92 in 10.0 mi NW 18.4 mph - N/A   Mostly Cloudy
12:55 PM 73.4 °F 68.0 °F 83% 29.92 in 10.0 mi NNW 17.3 mph 27.6 mph N/A   Mostly Cloudy
1:15 PM 73.4 °F 66.2 °F 78% 29.93 in 10.0 mi NNW 17.3 mph 23.0 mph N/A   Scattered Clouds
1:35 PM 73.4 °F 66.2 °F 78% 29.93 in 10.0 mi NNW 17.3 mph - N/A   Mostly Cloudy
1:55 PM 73.4 °F 66.2 °F 78% 29.95 in 10.0 mi NNW 15.0 mph 23.0 mph N/A   Overcast
2:15 PM 71.6 °F 66.2 °F 83% 29.95 in 10.0 mi NNW 15.0 mph - N/A   Overcast
2:35 PM 71.6 °F 66.2 °F 83% 29.96 in 10.0 mi NNW 17.3 mph 25.3 mph N/A   Overcast
2:55 PM 69.8 °F 64.4 °F 83% 29.96 in 10.0 mi NNW 13.8 mph 20.7 mph N/A   Overcast
3:15 PM 68.0 °F 64.4 °F 88% 29.98 in 10.0 mi North 17.3 mph 23.0 mph N/A   Overcast
3:35 PM 68.0 °F 62.6 °F 83% 29.97 in 10.0 mi NNE 16.1 mph 21.9 mph N/A   Overcast
3:55 PM 69.8 °F 60.8 °F 73% 29.98 in 10.0 mi North 17.3 mph 20.7 mph N/A   Scattered Clouds
4:15 PM 71.6 °F 62.6 °F 73% 29.98 in 10.0 mi North 13.8 mph - N/A   Mostly Cloudy
4:35 PM 71.6 °F 62.6 °F 73% 29.98 in 10.0 mi NNW 13.8 mph 18.4 mph N/A   Mostly Cloudy
4:55 PM 71.6 °F 62.6 °F 73% 29.99 in 10.0 mi North 12.7 mph - N/A   Partly Cloudy
5:15 PM 71.6 °F 60.8 °F 69% 29.99 in 10.0 mi North 12.7 mph 18.4 mph N/A   Partly Cloudy
5:35 PM 69.8 °F 60.8 °F 73% 30.01 in 10.0 mi NNW 12.7 mph - N/A   Mostly Cloudy
5:55 PM 69.8 °F 59.0 °F 68% 30.00 in 10.0 mi North 9.2 mph - N/A   Mostly Cloudy
6:15 PM 69.8 °F 59.0 °F 68% 29.99 in 10.0 mi NNW 12.7 mph - N/A   Partly Cloudy
6:35 PM 69.8 °F 59.0 °F 68% 30.00 in 10.0 mi North 11.5 mph - N/A   Scattered Clouds
6:55 PM 69.8 °F 59.0 °F 68% 30.01 in 10.0 mi North 13.8 mph - N/A   Scattered Clouds
7:15 PM 68.0 °F 57.2 °F 68% 30.01 in 10.0 mi NNW 16.1 mph - N/A   Mostly Cloudy
7:35 PM 68.0 °F 57.2 °F 68% 30.02 in 10.0 mi NNW 12.7 mph - N/A   Mostly Cloudy
7:55 PM 66.2 °F 57.2 °F 73% 30.02 in 10.0 mi NNW 10.4 mph - N/A   Mostly Cloudy
8:15 PM 66.2 °F 57.2 °F 73% 30.02 in 10.0 mi NNW 12.7 mph - N/A   Mostly Cloudy
8:35 PM 66.2 °F 57.2 °F 73% 30.03 in 10.0 mi North 12.7 mph 21.9 mph N/A   Overcast
8:55 PM 64.4 °F 57.2 °F 77% 30.04 in 10.0 mi NNW 9.2 mph - N/A   Mostly Cloudy
9:15 PM 62.6 °F 57.2 °F 82% 30.04 in 10.0 mi NW 8.1 mph - N/A   Scattered Clouds
9:35 PM 60.8 °F 57.2 °F 88% 30.05 in 10.0 mi NNW 8.1 mph - N/A   Clear
9:55 PM 59.0 °F 57.2 °F 94% 30.06 in 10.0 mi NW 6.9 mph - N/A   Clear
10:15 PM 57.2 °F 57.2 °F 100% 30.07 in 10.0 mi NW 5.8 mph - N/A   Clear
10:35 PM 57.2 °F 57.2 °F 100% 30.07 in 10.0 mi WNW 8.1 mph - N/A   Partly Cloudy
10:55 PM 57.2 °F 57.2 °F 100% 30.07 in 10.0 mi WNW 8.1 mph - N/A   Scattered Clouds
11:15 PM 57.2 °F 57.2 °F 100% 30.07 in 10.0 mi WNW 8.1 mph - N/A   Partly Cloudy
11:35 PM 57.2 °F 57.2 °F 100% 30.08 in 10.0 mi WNW 9.2 mph - N/A   Clear
11:55 PM 57.2 °F 57.2 °F 100% 30.08 in 10.0 mi NW 8.1 mph - N/A   Clear